Wind_Speed
12 12 9 9 11 15 10 9 6 7 6 8 9 7 6 3 2 3 3 7 8 9 10 9 9 9 10 11 12 11 11 12 13 13 12 12 13 10 11 9 8 6 5 5 5 3 2 0 0
11 11 7 5 12 9 9 14 3 4 7 11 11 8 7 6 4 4 5 6 7 8 8 9 9 10 10 11 11 10 11 10 12 12 12 12 13 10 9 8 8 7 7 5 4 2 1 2 2
9 11 6 3 1 7 14 11 7 8 7 10 9 7 8 9 7 6 7 5 6 6 6 6 6 8 9 9 8 9 9 10 11 10 11 11 10 9 9 10 9 9 7 5 4 3 4 7 6
8 9 5 4 2 14 10 9 6 6 7 9 9 9 8 8 8 8 8 7 5 4 4 5 4 5 5 6 7 8 8 8 9 10 11 12 11 10 11 11 11 10 8 7 6 5 8 10 8
7 6 4 4 9 9 9 9 8 6 4 6 10 13 11 10 10 9 10 9 7 4 4 4 4 4 5 7 8 7 9 10 9 10 11 12 14 14 14 12 12 11 9 8 8 8 9 10 10
6 3 1 3 11 13 9 10 9 6 5 6 10 18 15 14 11 11 10 9 8 6 5 5 5 5 6 7 9 9 11 11 11 10 12 13 14 14 13 12 12 11 11 10 9 9 10 9 11
6 4 6 9 13 12 7 5 7 7 7 10 8 11 12 13 13 11 10 11 9 9 8 8 8 7 8 8 9 10 11 11 12 13 14 15 15 16 14 13 13 12 12 12 10 11 10 10 11
5 5 7 8 8 11 12 6 9 7 13 8 3 1 10 11 12 14 14 11 10 9 9 9 8 7 8 9 10 11 13 14 15 15 16 17 17 18 19 17 15 13 12 12 12 13 11 11 11
4 4 4 6 9 14 6 4 8 6 6 5 7 12 9 10 14 20 14 12 10 10 9 9 7 6 7 8 9 11 13 14 15 15 15 15 17 20 22 20 18 16 13 12 13 14 11 11 10
3 3 4 15 10 10 9 7 6 5 6 5 10 8 10 13 20 21 15 14 12 9 9 9 7 5 5 6 7 9 11 13 13 14 15 17 18 20 20 18 19 18 16 13 14 13 12 11 11
5 4 7 8 7 6 8 3 5 5 3 5 8 9 13 17 20 19 16 14 14 13 10 9 7 2 1 3 5 8 10 13 15 17 18 18 20 21 21 17 16 18 16 15 14 13 12 11 11
11 10 9 8 8 8 5 5 6 8 12 14 9 9 12 14 15 16 14 14 12 14 12 11 7 3 4 6 8 11 13 15 18 20 20 18 18 19 20 16 15 17 16 14 13 13 11 11 12
13 14 13 11 9 10 11 5 7 6 10 14 18 13 15 14 15 14 14 14 14 13 13 12 10 9 9 10 13 14 15 15 16 19 20 20 18 17 17 15 14 14 14 13 13 11 11 13 11
15 15 14 12 12 12 12 11 8 6 6 11 14 21 17 16 16 19 21 19 16 14 14 16 14 12 13 14 16 17 16 17 19 19 22 19 18 18 16 13 11 12 13 13 12 12 13 12 11
12 14 13 12 11 11 10 12 12 12 9 9 11 14 17 17 18 21 22 21 18 11 14 13 14 14 17 21 22 21 22 22 24 22 24 22 19 20 18 17 14 13 14 13 13 14 14 13 13
10 11 2 11 10 12 9 5 12 25 20 12 18 18 17 19 20 20 19 21 19 18 13 12 15 18 21 27 26 27 28 25 31 32 25 24 22 21 20 20 20 17 17 16 17 16 15 15 16
6 3 8 12 7 10 5 4 21 32 25 19 21 16 17 21 20 19 22 21 21 19 16 16 18 21 25 32 30 28 36 30 42 41 37 28 26 24 26 25 23 22 21 20 19 19 17 18 18
6 6 6 4 3 5 1 11 24 20 10 10 15 10 15 21 20 17 19 21 21 24 22 19 21 25 28 30 31 31 36 38 41 35 37 37 34 25 27 27 23 22 21 22 21 21 21 20 20
11 6 7 10 7 2 6 5 8 7 7 9 12 12 16 20 23 19 21 24 24 27 23 21 23 23 28 33 31 37 35 36 36 42 35 38 42 32 27 25 22 21 21 22 23 23 23 22 23
4 1 6 11 11 6 12 10 12 10 7 7 14 13 11 16 19 21 22 22 23 26 29 25 28 30 31 32 34 35 32 36 33 40 34 34 42 35 26 22 19 19 20 21 24 25 24 25 26
1 5 10 4 14 7 8 14 15 6 17 11 8 15 18 16 23 22 23 24 28 26 25 27 27 29 34 35 36 39 40 39 32 37 35 28 30 39 26 19 18 18 18 21 23 25 26 27 29
10 10 7 6 4 9 14 13 27 2 14 17 14 15 17 18 21 23 24 24 24 27 24 26 29 32 35 38 39 36 39 31 30 27 32 28 25 34 26 15 16 19 21 24 25 26 28 29 30
13 4 5 3 4 7 9 4 21 11 15 12 14 15 19 21 22 22 16 14 12 13 24 28 31 33 35 37 37 32 31 27 26 25 22 23 25 15 25 27 14 18 20 23 27 28 29 29 30
3 2 12 10 7 5 7 11 27 8 6 15 15 13 13 14 14 14 14 17 20 21 19 20 24 29 29 30 28 26 26 22 25 25 21 18 18 13 13 12 16 21 26 26 26 29 31 30 30
5 4 8 2 5 14 15 11 20 24 15 15 12 10 10 10 12 12 13 12 13 15 16 18 19 20 22 24 26 28 28 28 28 22 23 21 19 18 20 20 21 25 25 28 31 34 33 30 29
7 6 6 2 7 12 17 3 14 19 16 12 9 9 10 11 13 11 12 13 12 13 12 13 12 14 16 18 21 24 28 29 27 26 25 25 24 22 22 21 25 27 31 32 34 40 44 28 27
9 3 12 14 11 8 9 11 24 15 13 13 11 11 11 11 10 10 11 11 12 10 10 10 13 15 19 19 18 20 21 23 24 26 26 25 24 24 28 30 29 33 24 26 34 38 37 32 31
15 15 6 6 7 7 11 13 11 28 24 18 17 17 15 14 13 12 12 12 13 13 15 15 17 17 18 18 19 20 20 21 23 23 24 25 26 27 29 30 32 32 34 38 31 31 34 34 35
12 11 15 16 17 11 10 9 14 24 28 20 17 19 18 19 19 18 17 16 16 17 17 16 17 18 18 18 19 21 22 21 21 24 25 27 28 28 29 31 31 34 37 31 38 41 37 35 36
17 15 19 16 10 10 15 15 26 28 28 22 19 26 28 20 22 23 23 22 22 21 19 19 20 20 23 22 23 23 23 23 25 28 29 31 32 31 30 32 32 30 33 35 37 42 41 41 41
Wind_Direction
265 283 304 327 343 38 314 339 303 298 307 344 347 344 342 321 274 226 214 195 224 230 226 230 240 252 261 264 267 273 276 276 277 276 279 282 280 285 286 287 281 277 276 284 289 277 253 204 14
252 267 284 318 65 263 296 306 312 275 291 319 325 323 332 321 269 232 216 214 229 238 247 254 259 261 261 261 264 269 270 273 274 274 278 281 283 291 294 291 292 291 291 290 288 268 228 335 319
234 256 266 334 17 264 264 301 285 274 300 323 323 326 320 316 307 269 254 240 228 234 238 238 247 253 255 260 271 276 279 279 279 284 288 286 288 292 296 301 304 299 299 300 305 286 309 328 323
234 254 267 107 257 264 264 284 288 271 304 312 311 311 310 309 296 268 251 250 262 275 280 272 267 265 276 286 285 281 278 279 287 288 290 293 301 308 305 303 305 300 301 307 303 294 309 319 313
236 255 283 285 252 242 270 273 277 282 338 322 321 317 304 312 303 284 256 250 246 258 272 284 293 309 315 311 303 302 298 296 302 310 309 312 311 310 308 307 301 295 285 288 281 282 304 308 309
246 231 202 351 261 282 283 279 287 263 267 327 307 320 300 307 311 300 284 270 268 273 281 291 290 299 304 316 316 316 314 314 315 311 307 309 308 303 303 304 303 290 278 288 289 298 304 301 301
242 226 192 228 246 322 265 267 270 254 260 267 310 290 298 312 308 306 289 278 276 273 278 281 286 301 316 321 317 318 314 313 307 309 309 306 300 296 293 290 293 292 278 281 291 293 294 291 288
251 231 219 236 271 242 291 284 262 222 230 278 301 218 286 298 319 324 310 295 279 284 284 283 290 307 314 315 319 320 313 311 310 309 308 303 301 297 291 283 279 283 287 285 286 283 277 287 286
295 269 221 210 237 263 308 162 277 239 247 250 274 288 287 295 318 330 309 303 293 279 280 280 285 293 302 305 309 308 306 305 303 299 299 306 307 306 299 283 273 272 276 281 280 281 278 291 295
306 269 194 213 248 239 286 301 275 249 267 249 269 245 289 291 324 328 307 292 287 284 275 277 271 284 296 313 314 304 302 297 296 297 297 303 303 306 296 279 266 257 260 265 276 281 281 284 296
308 263 263 298 291 284 288 302 225 218 353 248 225 257 301 315 313 313 299 288 290 279 281 270 263 255 347 307 301 300 296 299 299 294 298 300 308 312 298 272 265 254 252 262 278 280 280 284 291
308 304 304 315 313 300 276 240 217 218 212 252 225 315 319 311 311 307 294 283 286 285 273 276 265 234 264 282 291 294 298 301 301 301 300 304 308 317 318 285 260 250 246 251 264 268 276 284 289
305 304 307 312 306 311 293 251 202 215 245 255 276 310 305 313 321 315 294 284 291 300 284 278 280 275 272 280 288 294 298 300 299 301 300 298 305 313 320 307 275 254 239 248 258 262 272 275 279
313 315 317 324 319 318 305 288 277 246 203 248 262 279 284 306 324 334 313 294 298 298 296 297 294 280 271 271 277 283 289 293 291 293 289 290 295 300 306 302 285 269 255 251 249 254 262 268 277
319 322 315 310 317 302 305 297 281 241 286 285 272 281 295 298 317 321 323 291 295 283 300 309 310 295 290 284 277 284 295 288 281 282 281 283 287 286 286 286 278 272 267 256 254 257 260 261 272
318 333 333 294 317 298 308 276 290 253 284 282 274 290 296 294 304 308 319 296 289 285 287 288 303 321 333 333 311 287 280 288 285 279 275 278 278 283 276 276 279 274 269 262 257 258 259 264 273
8 91 224 292 327 299 320 166 250 257 273 273 262 298 278 286 290 306 312 294 294 287 281 291 314 315 327 328 318 314 306 331 326 292 284 267 277 277 282 272 271 270 266 262 261 261 258 260 269
258 220 243 256 308 45 345 252 235 262 276 265 269 287 267 272 277 295 296 292 292 295 285 297 307 311 313 317 319 329 329 329 339 312 281 270 265 272 275 273 266 268 266 264 258 257 257 260 265
238 193 195 253 282 96 248 260 303 316 299 284 284 282 271 265 272 282 302 286 286 293 289 293 301 300 304 317 325 325 322 325 327 334 300 270 261 259 263 266 267 269 270 267 263 260 262 265 267
44 12 245 292 307 124 285 276 293 306 293 288 271 265 275 260 267 274 288 294 296 288 289 292 289 297 307 311 318 321 323 335 327 339 325 283 260 246 242 256 258 265 270 269 266 264 266 269 273
27 152 249 230 293 345 292 264 275 307 320 291 268 261 265 263 262 271 275 289 294 290 288 291 298 302 301 304 311 314 314 318 322 345 332 304 269 238 235 242 253 266 275 276 275 275 274 274 279
280 296 290 277 298 305 281 262 286 178 312 294 271 261 264 265 267 277 286 292 289 272 275 280 289 293 296 297 299 303 307 311 320 339 357 335 261 241 240 240 257 282 285 283 284 285 284 284 288
242 335 31 313 261 265 268 299 270 231 283 298 275 267 267 270 275 278 277 276 299 298 275 273 279 286 289 289 294 300 305 308 312 322 354 345 11 336 315 248 271 290 287 288 292 293 293 293 294
298 44 38 29 10 267 244 272 292 316 319 310 293 284 279 281 285 286 289 293 291 296 295 287 277 283 289 291 290 295 306 307 318 321 323 325 333 323 320 284 278 288 296 294 295 293 294 292 292
284 22 325 290 262 296 296 300 274 292 322 308 305 308 305 302 308 290 289 306 295 288 287 297 290 288 298 304 303 308 313 314 319 320 324 326 313 312 305 299 279 294 298 298 293 292 287 289 294
248 224 177 254 244 288 310 319 241 285 300 299 308 306 305 297 298 303 294 293 298 296 297 297 305 313 317 315 315 314 314 319 324 325 324 324 318 302 291 287 288 291 294 289 292 292 289 279 282
255 269 248 205 244 250 251 274 311 299 297 303 305 304 301 298 294 301 293 300 306 302 302 303 311 317 322 315 313 314 309 308 313 316 321 322 321 316 311 299 294 289 298 301 313 305 296 278 285
247 261 240 299 278 273 262 296 273 286 297 303 304 302 300 298 293 294 295 299 304 305 307 312 314 313 313 312 312 310 306 306 308 309 310 311 312 311 307 305 302 300 299 299 303 303 300 293 288
251 280 250 237 229 236 252 267 242 263 280 292 294 290 293 292 293 291 288 285 285 287 292 298 298 301 305 311 314 313 312 311 309 307 307 307 307 308 307 304 301 303 299 300 295 299 305 303 304
273 262 267 270 260 266 257 254 268 260 274 280 276 277 286 286 286 287 286 283 282 282 288 294 299 307 312 316 316 320 312 311 309 307 306 306 306 307 309 306 306 306 310 312 305 302 319 311 313
Height
5907 5907 5909 5910 5914 5914 5913 5911 5909 5907 5906 5903 5901 5899 5897 5896 5894 5895 5891 5890 5890 5890 5890 5890 5890 5890 5890 5889 5889 5888 5887 5886 5886 5885 5884 5883 5883 5882 5883 5882 5881 5881 5881 5881 5881 5880 5880 5879 5879
5905 5905 5907 5909 5913 5915 5912 5910 5909 5907 5905 5903 5900 5898 5896 5895 5893 5892 5891 5890 5889 5890 5890 5890 5889 5889 5888 5888 5887 5886 5885 5884 5884 5884 5883 5882 5883 5882 5882 5881 5882 5881 5880 5879 5879 5879 5879 5879 5878
5903 5903 5907 5907 5917 5919 5911 5910 5908 5906 5905 5903 5901 5898 5896 5894 5892 5891 5891 5889 5889 5889 5888 5887 5887 5888 5887 5886 5885 5884 5883 5883 5883 5882 5882 5882 5882 5881 5880 5882 5881 5880 5879 5878 5878 5878 5878 5878 5877
5902 5903 5905 5908 5920 5912 5909 5908 5908 5906 5905 5903 5902 5899 5897 5894 5892 5891 5889 5889 5888 5888 5887 5887 5886 5886 5885 5885 5884 5884 5883 5882 5881 5881 5882 5883 5882 5881 5880 5880 5878 5878 5876 5876 5876 5876 5875 5875 5875
5901 5903 5905 5911 5915 5910 5906 5906 5907 5906 5905 5903 5903 5901 5898 5895 5893 5891 5889 5887 5886 5886 5885 5885 5885 5884 5884 5884 5883 5882 5882 5881 5880 5881 5882 5881 5880 5880 5879 5878 5877 5876 5875 5875 5874 5874 5873 5874 5873
5900 5904 5906 5916 5915 5906 5906 5904 5905 5905 5905 5903 5902 5900 5899 5897 5894 5891 5889 5888 5886 5885 5884 5883 5883 5882 5883 5882 5882 5881 5881 5880 5879 5879 5879 5878 5879 5878 5877 5876 5875 5875 5874 5874 5873 5872 5872 5872 5871
5899 5903 5906 5915 5912 5907 5904 5903 5903 5903 5904 5903 5900 5902 5898 5897 5895 5892 5889 5887 5885 5884 5883 5882 5882 5881 5881 5881 5880 5879 5879 5878 5878 5877 5876 5876 5876 5876 5874 5873 5872 5872 5872 5871 5870 5870 5870 5869 5869
5898 5901 5903 5909 5912 5907 5903 5901 5901 5902 5897 5901 5900 5882 5897 5896 5894 5892 5890 5887 5885 5883 5882 5881 5881 5880 5880 5879 5878 5877 5877 5876 5876 5875 5874 5874 5873 5872 5871 5870 5870 5869 5869 5869 5868 5867 5867 5866 5866
5898 5901 5904 5910 5908 5908 5901 5906 5900 5900 5900 5899 5898 5898 5897 5896 5894 5892 5890 5888 5885 5884 5882 5881 5879 5878 5877 5877 5876 5876 5875 5874 5873 5872 5872 5870 5869 5868 5867 5866 5866 5866 5866 5866 5866 5865 5864 5863 5862
5898 5901 5906 5906 5904 5903 5901 5902 5901 5901 5900 5899 5898 5897 5897 5895 5892 5891 5889 5887 5885 5882 5880 5879 5878 5877 5876 5876 5875 5875 5874 5873 5872 5871 5870 5868 5866 5864 5863 5861 5861 5861 5862 5861 5862 5862 5861 5860 5859
5898 5899 5901 5900 5900 5900 5900 5900 5900 5901 5903 5901 5898 5897 5895 5893 5891 5890 5888 5886 5884 5882 5880 5879 5878 5877 5877 5876 5875 5874 5872 5872 5871 5870 5868 5866 5863 5861 5858 5857 5857 5857 5858 5859 5859 5859 5858 5858 5857
5897 5897 5898 5898 5898 5897 5897 5898 5899 5900 5900 5897 5895 5893 5892 5890 5889 5889 5887 5885 5884 5882 5881 5879 5878 5877 5877 5875 5874 5873 5872 5872 5870 5869 5867 5864 5862 5859 5855 5853 5852 5852 5854 5855 5856 5855 5855 5855 5854
5894 5894 5895 5896 5895 5895 5894 5896 5898 5899 5898 5896 5894 5891 5890 5890 5889 5888 5886 5886 5884 5882 5880 5879 5878 5877 5876 5874 5873 5872 5871 5870 5869 5866 5865 5863 5861 5858 5854 5852 5851 5850 5851 5852 5852 5851 5852 5852 5851
5892 5891 5891 5892 5892 5892 5892 5892 5893 5896 5895 5895 5893 5891 5890 5889 5888 5886 5884 5883 5883 5881 5880 5879 5878 5876 5874 5872 5871 5870 5870 5869 5866 5864 5862 5860 5858 5857 5854 5853 5851 5851 5850 5849 5849 5848 5848 5848 5848
5889 5888 5888 5889 5889 5889 5890 5890 5891 5893 5892 5893 5891 5890 5888 5887 5887 5885 5883 5882 5881 5880 5879 5878 5876 5875 5874 5872 5870 5869 5868 5867 5863 5861 5859 5856 5854 5854 5853 5852 5850 5849 5848 5848 5846 5846 5845 5844 5843
5887 5887 5889 5885 5886 5886 5887 5892 5894 5887 5889 5890 5890 5887 5887 5885 5884 5884 5882 5880 5880 5879 5878 5877 5876 5876 5875 5872 5869 5867 5864 5865 5862 5859 5856 5853 5851 5850 5848 5848 5847 5846 5845 5844 5844 5842 5841 5841 5840
5887 5895 5894 5887 5885 5885 5886 5893 5888 5884 5886 5887 5885 5884 5886 5884 5882 5881 5881 5879 5878 5877 5877 5876 5875 5874 5872 5870 5867 5867 5860 5859 5855 5851 5849 5849 5847 5846 5844 5843 5842 5842 5842 5841 5841 5840 5838 5836 5835
5893 5893 5891 5891 5886 5885 5887 5887 5882 5882 5882 5880 5880 5881 5882 5882 5882 5880 5879 5877 5876 5874 5874 5875 5873 5872 5868 5868 5865 5861 5857 5852 5850 5843 5840 5840 5841 5840 5838 5838 5837 5837 5837 5837 5836 5835 5833 5831 5829
5886 5888 5891 5885 5882 5886 5884 5882 5878 5878 5877 5878 5879 5879 5879 5879 5879 5878 5876 5875 5874 5872 5872 5872 5871 5868 5865 5863 5860 5857 5853 5848 5843 5836 5830 5832 5832 5831 5832 5832 5833 5833 5832 5832 5832 5830 5829 5827 5825
5882 5886 5887 5882 5880 5881 5881 5879 5876 5876 5876 5876 5875 5876 5876 5876 5876 5876 5874 5872 5870 5869 5869 5869 5866 5863 5861 5859 5856 5853 5848 5844 5837 5830 5823 5820 5822 5822 5824 5827 5827 5828 5828 5827 5827 5826 5824 5822 5820
5883 5887 5884 5885 5878 5879 5880 5879 5865 5872 5872 5872 5872 5872 5873 5872 5871 5872 5872 5869 5866 5865 5864 5862 5862 5860 5858 5855 5851 5848 5844 5842 5835 5825 5817 5811 5812 5813 5815 5822 5823 5824 5824 5823 5823 5821 5819 5818 5815
5886 5880 5879 5878 5878 5883 5877 5880 5873 5868 5869 5869 5868 5868 5868 5869 5869 5867 5866 5864 5861 5859 5860 5859 5857 5856 5854 5851 5849 5846 5841 5838 5833 5825 5815 5810 5807 5810 5811 5817 5818 5820 5819 5819 5817 5815 5813 5812 5809
5879 5878 5877 5877 5876 5878 5879 5879 5872 5871 5869 5866 5865 5864 5864 5864 5864 5862 5861 5860 5858 5856 5856 5855 5854 5852 5849 5847 5844 5841 5837 5834 5829 5825 5818 5813 5810 5814 5812 5810 5815 5816 5815 5813 5811 5809 5807 5804 5802
5878 5878 5877 5876 5879 5880 5878 5877 5865 5859 5866 5863 5862 5860 5860 5860 5859 5859 5858 5856 5854 5853 5852 5851 5849 5848 5845 5842 5839 5837 5834 5831 5827 5823 5820 5815 5813 5811 5811 5811 5812 5811 5811 5808 5805 5803 5801 5798 5795
5875 5876 5880 5879 5879 5875 5875 5875 5869 5866 5862 5863 5861 5859 5858 5857 5855 5854 5853 5852 5850 5849 5848 5846 5845 5844 5842 5840 5837 5834 5831 5827 5824 5821 5818 5815 5812 5812 5811 5810 5808 5807 5805 5803 5799 5797 5794 5790 5788
5874 5874 5879 5881 5880 5874 5874 5876 5869 5866 5865 5862 5859 5857 5855 5854 5853 5852 5851 5850 5848 5847 5845 5843 5842 5840 5838 5837 5834 5831 5828 5825 5822 5820 5817 5814 5811 5809 5807 5806 5805 5802 5800 5797 5793 5789 5785 5783 5781
5872 5872 5872 5874 5876 5877 5877 5871 5867 5863 5862 5859 5857 5855 5853 5852 5851 5850 5848 5847 5845 5844 5843 5842 5841 5839 5836 5833 5831 5829 5825 5822 5818 5816 5813 5809 5807 5805 5803 5801 5799 5797 5793 5790 5785 5782 5779 5776 5774
5867 5867 5870 5872 5874 5875 5873 5870 5870 5860 5860 5857 5855 5853 5851 5850 5848 5847 5845 5844 5842 5840 5838 5837 5835 5834 5832 5829 5827 5824 5822 5819 5816 5813 5809 5807 5804 5802 5799 5796 5793 5791 5788 5785 5780 5777 5774 5771 5768
5864 5865 5865 5866 5867 5868 5870 5870 5864 5860 5858 5857 5855 5852 5849 5847 5845 5844 5842 5840 5838 5836 5835 5833 5831 5829 5827 5825 5823 5820 5817 5814 5812 5809 5806 5803 5800 5797 5793 5790 5787 5784 5781 5778 5777 5769 5762 5762 5757
5860 5861 5860 5861 5865 5863 5861 5863 5858 5856 5854 5852 5852 5848 5845 5844 5841 5839 5837 5836 5834 5832 5829 5827 5825 5823 5820 5819 5816 5814 5811 5808 5806 5803 5800 5797 5794 5791 5788 5785 5781 5778 5774 5771 5768 5762 5756 5753 5750